KJ4AJP Weather Reports


Display with metric or nautical units.
time (UTC)temp
F
wind
direction
speed
MPH
gust
MPH
rain 1hr
in
rain 24hr
in
rain mn
in
humidity
%
barometer
mb
20260503213626 71 350 4.0 4.0 0.00 0.00 0.00 33 1015.8
20260503213122 72 177 4.0 4.0 0.00 0.00 0.00 33 1015.8
20260503212619 72 276 7.0 10.0 0.00 0.00 0.00 32 1016.3
20260503212117 73 249 4.0 6.0 0.00 0.00 0.00 33 1016.0
20260503211614 73 182 1.0 2.0 0.00 0.00 0.00 35 1016.3
20260503211109 73 18 3.0 4.0 0.00 0.00 0.00 32 1016.5
20260503210606 73 232 2.0 4.0 0.00 0.00 0.00 34 1016.5
20260503205559 72 317 4.0 6.0 0.00 0.00 0.00 33 1016.7
20260503205055 72 237 2.0 3.0 0.00 0.00 0.00 34 1016.6
20260503204552 72 319 2.0 2.0 0.00 0.00 0.00 34 1017.0
20260503204049 72 292 7.0 10.0 0.00 0.00 0.00 32 1017.1
20260503203546 72 272 5.0 6.0 0.00 0.00 0.00 33 1017.0
20260503203043 72 260 2.0 7.0 0.00 0.00 0.00 35 1017.2
20260503202541 72 64 1.0 2.0 0.00 0.00 0.00 32 1017.4
20260503202039 71 249 2.0 2.0 0.00 0.00 0.00 39 1017.4
20260503201537 71 213 5.0 6.0 0.00 0.00 0.00 33 1017.6
20260503201034 71 345 2.0 3.0 0.00 0.00 0.00 35 1017.6
20260503200530 72 317 5.0 8.0 0.00 0.00 0.00 32 1017.8
20260503200027 71 1 2.0 2.0 0.00 0.00 0.00 35 1018.2
20260503195524 70 194 4.0 8.0 0.00 0.00 0.00 34 1018.1
20260503195021 70 228 8.0 8.0 0.00 0.00 0.00 32 1018.3
20260503194518 70 261 5.0 7.0 0.00 0.00 0.00 33 1018.3
20260503194017 71 272 5.0 7.0 0.00 0.00 0.00 38 1018.7
20260503193514 71 309 4.0 4.0 0.00 0.00 0.00 33 1018.7
20260503193010 70 218 3.0 3.0 0.00 0.00 0.00 36 1018.7
20260503192506 70 265 6.0 8.0 0.00 0.00 0.00 35 1018.8
20260503192001 70 249 3.0 3.0 0.00 0.00 0.00 39 1019.0
20260503191459 70 357 1.0 2.0 0.00 0.00 0.00 40 1019.1
20260503190955 69 208 6.0 7.0 0.00 0.00 0.00 37 1019.1
20260503190453 69 308 5.0 7.0 0.00 0.00 0.00 36 1019.1
20260503185950 69 43 1.0 1.0 0.00 0.00 0.00 36 1019.1
20260503185446 69 278 6.0 7.0 0.00 0.00 0.00 35 1019.5
20260503184946 69 280 3.0 3.0 0.00 0.00 0.00 35 1019.3
20260503184442 69 355 2.0 2.0 0.00 0.00 0.00 35 1019.5
20260503183939 69 306 5.0 6.0 0.00 0.00 0.00 35 1019.4
20260503183435 69 247 3.0 4.0 0.00 0.00 0.00 37 1019.6
20260503182932 69 291 1.0 2.0 0.00 0.00 0.00 40 1019.7
20260503182431 68 198 2.0 3.0 0.00 0.00 0.00 38 1019.7
20260503181928 68 296 4.0 7.0 0.00 0.00 0.00 34 1019.7
20260503181425 68 73 3.0 4.0 0.00 0.00 0.00 37 1019.8
20260503180921 67 281 3.0 3.0 0.00 0.00 0.00 36 1019.8
20260503180420 68 302 6.0 10.0 0.00 0.00 0.00 38 1020.0
20260503175917 67 237 3.0 3.0 0.00 0.00 0.00 40 1020.1
20260503175415 67 232 7.0 10.0 0.00 0.00 0.00 38 1020.3
20260503174910 68 224 4.0 6.0 0.00 0.00 0.00 37 1020.2
20260503174409 67 347 4.0 7.0 0.00 0.00 0.00 39 1020.3
20260503173908 67 215 2.0 2.0 0.00 0.00 0.00 43 1020.4
20260503173405 67 197 3.0 3.0 0.00 0.00 0.00 42 1020.4
20260503172902 67 30 1.0 2.0 0.00 0.00 0.00 38 1020.4
20260503172359 67 311 3.0 3.0 0.00 0.00 0.00 41 1020.6
20260503171855 67 71 2.0 2.0 0.00 0.00 0.00 38 1020.6
20260503171352 66 49 1.0 2.0 0.00 0.00 0.00 39 1020.8
20260503170850 65 242 5.0 6.0 0.00 0.00 0.00 41 1020.8
20260503170346 66 216 3.0 3.0 0.00 0.00 0.00 40 1020.9
20260503150738 61 63 2.0 2.0 0.00 0.00 0.00 47 1021.9
20260503150234 61 85 4.0 4.0 0.00 0.00 0.00 49 1021.7
20260503140159 56 49 2.0 2.0 0.00 0.00 0.00 64 1021.9
20260503131128 50 37 1.0 2.0 0.00 0.00 0.00 81 1021.9
20260503130626 49 70 1.0 1.0 0.00 0.00 0.00 89 1022.0
20260503130123 48 63 0.0 0.0 0.00 0.00 0.00 97 1021.8
20260503110516 38 51 0.0 0.0 0.00 0.00 0.00 99 1021.1
20260503090408 39 51 0.0 0.0 0.00 0.00 0.00 99 1020.6
20260503081335 39 51 0.0 0.0 0.00 0.00 0.00 98 1020.6
20260503080831 39 51 0.0 0.0 0.00 0.00 0.00 98 1020.7
20260503080329 39 51 0.0 0.0 0.00 0.00 0.00 98 1020.5
20260503072805 39 51 0.0 0.0 0.00 0.00 0.00 98 1020.3
20260503072305 40 51 0.0 0.0 0.00 0.00 0.00 97 1020.3
20260503071758 40 51 0.0 0.0 0.00 0.00 0.00 98 1020.5
20260503071255 40 51 0.0 0.0 0.00 0.00 0.00 97 1020.4
20260503070751 40 51 0.0 0.0 0.00 0.00 0.00 97 1020.4
20260503070250 40 51 0.0 0.0 0.00 0.00 0.00 97 1020.4
20260503060214 41 51 0.0 0.0 0.00 0.00 0.00 96 1020.5
20260503054701 41 51 0.0 0.0 0.00 0.00 0.00 96 1020.4
20260503054159 41 51 0.0 0.0 0.00 0.00 0.00 95 1020.6
20260503053656 41 51 0.0 0.0 0.00 0.00 0.00 95 1020.6
20260503053155 41 51 0.0 0.0 0.00 0.00 0.00 95 1020.6
20260503052651 41 51 0.0 0.0 0.00 0.00 0.00 94 1020.6
20260503052147 42 51 0.0 0.0 0.00 0.00 0.00 94 1020.5
20260503051643 42 51 0.0 0.0 0.00 0.00 0.00 93 1020.4
20260503051141 42 51 0.0 0.0 0.00 0.00 0.00 93 1020.6
20260503050637 42 51 0.0 0.0 0.00 0.00 0.00 93 1020.5
20260503050134 43 51 0.0 0.0 0.00 0.00 0.00 93 1020.5
20260503045631 43 51 0.0 0.0 0.00 0.00 0.00 92 1020.6
20260503045128 43 51 0.0 0.0 0.00 0.00 0.00 92 1020.7
20260503044625 44 51 0.0 0.0 0.00 0.00 0.00 92 1020.3
20260503044123 44 51 0.0 0.0 0.00 0.00 0.00 92 1020.5
20260503043619 44 51 0.0 0.0 0.00 0.00 0.00 92 1020.4
20260503043116 44 51 0.0 0.0 0.00 0.00 0.00 91 1020.5
20260503042613 44 51 0.0 0.0 0.00 0.00 0.00 91 1020.4
20260503042108 44 51 0.0 0.0 0.00 0.00 0.00 90 1020.3
20260503041605 44 51 0.0 0.0 0.00 0.00 0.00 89 1020.5
20260503041103 44 51 0.0 0.0 0.00 0.00 0.00 89 1020.3
20260503040600 45 51 0.0 0.0 0.00 0.00 0.00 89 1020.3
20260503040057 45 51 0.0 0.0 0.00 0.00 0.00 89 1020.4
20260503035554 45 51 0.0 0.0 0.00 0.00 0.00 88 1020.3
20260503035052 45 51 0.0 0.0 0.00 0.00 0.00 87 1020.3
20260503034549 45 51 0.0 0.0 0.00 0.00 0.00 87 1020.3
20260503034046 46 51 0.0 0.0 0.00 0.00 0.00 86 1020.2
20260503033543 46 51 0.0 0.0 0.00 0.00 0.00 86 1020.2
20260503033041 46 51 0.0 0.0 0.00 0.00 0.00 86 1020.3
20260503032539 46 51 0.0 0.0 0.00 0.00 0.00 87 1020.3
20260503032037 45 51 0.0 0.0 0.00 0.00 0.00 87 1020.4
20260503031534 46 51 0.0 0.0 0.00 0.00 0.00 86 1020.2
20260503031031 46 51 0.0 0.0 0.00 0.00 0.00 84 1020.2
20260503030527 46 51 0.0 0.0 0.00 0.00 0.00 84 1020.3
20260503030025 46 51 0.0 0.0 0.00 0.00 0.00 85 1020.1
20260503025521 46 51 0.0 0.0 0.00 0.00 0.00 86 1020.3
20260503025019 46 51 0.0 0.0 0.00 0.00 0.00 86 1020.2
20260503024515 46 51 0.0 0.0 0.00 0.00 0.00 85 1020.1
20260503024012 46 51 0.0 0.0 0.00 0.00 0.00 84 1020.0
20260503023509 46 51 0.0 0.0 0.00 0.00 0.00 83 1020.1
20260503023006 46 51 0.0 0.0 0.00 0.00 0.00 80 1020.2
20260503022502 47 51 0.0 0.0 0.00 0.00 0.00 77 1020.0
20260503021957 47 51 0.0 0.0 0.00 0.00 0.00 76 1020.0
20260503021454 48 51 0.0 0.0 0.00 0.00 0.00 75 1019.8
20260503020951 49 51 0.0 0.0 0.00 0.00 0.00 74 1019.7
20260503020449 49 51 0.0 0.0 0.00 0.00 0.00 72 1019.8
20260503015945 49 51 0.0 0.0 0.00 0.00 0.00 72 1019.6
20260503015442 50 51 0.0 0.0 0.00 0.00 0.00 70 1019.5
20260503014938 51 51 0.0 0.0 0.00 0.00 0.00 68 1019.4
20260503014435 51 51 0.0 0.0 0.00 0.00 0.00 66 1019.5
20260503013933 52 51 0.0 0.0 0.00 0.00 0.00 65 1019.3
20260503013430 52 51 0.0 0.0 0.00 0.00 0.00 65 1019.4
20260503012927 53 51 0.0 0.0 0.00 0.00 0.00 63 1019.4
20260503012425 53 52 0.0 0.0 0.00 0.00 0.00 63 1019.2
20260503011921 53 52 0.0 0.0 0.00 0.00 0.00 62 1019.0
20260503011418 54 50 0.0 0.0 0.00 0.00 0.00 61 1019.1
20260503010915 54 54 0.0 0.0 0.00 0.00 0.00 60 1019.0
20260503010412 54 56 0.0 0.0 0.00 0.00 0.00 57 1018.8
20260503005909 55 56 0.0 0.0 0.00 0.00 0.00 56 1018.9
20260503005406 55 50 0.0 0.0 0.00 0.00 0.00 54 1018.8
20260503004902 56 59 0.0 1.0 0.00 0.00 0.00 54 1018.8
20260503004400 56 60 0.0 0.0 0.00 0.00 0.00 54 1018.8
20260503003857 56 41 0.0 1.0 0.00 0.00 0.00 53 1018.7
20260503003353 57 54 0.0 1.0 0.00 0.00 0.00 52 1018.6
20260503002851 57 51 0.0 0.0 0.00 0.00 0.00 54 1018.8
20260503002348 57 58 0.0 0.0 0.00 0.00 0.00 53 1018.7
20260503001844 57 79 1.0 1.0 0.00 0.00 0.00 55 1018.6
20260503001341 58 51 0.0 0.0 0.00 0.00 0.00 56 1018.3
20260503000838 58 57 1.0 2.0 0.00 0.00 0.00 56 1018.1
20260503000336 58 48 1.0 1.0 0.00 0.00 0.00 54 1018.0
20260502235832 58 45 1.0 1.0 0.00 0.00 0.00 53 1018.0
20260502235330 58 65 1.0 1.0 0.00 0.00 0.00 53 1018.0
20260502234826 59 53 0.0 0.0 0.00 0.00 0.00 53 1018.1
20260502234323 59 55 0.0 1.0 0.00 0.00 0.00 53 1017.9
20260502233820 59 49 2.0 3.0 0.00 0.00 0.00 54 1017.9
20260502233316 59 45 1.0 1.0 0.00 0.00 0.00 54 1018.0
20260502232813 60 53 1.0 1.0 0.00 0.00 0.00 53 1017.7
20260502232309 60 66 1.0 1.0 0.00 0.00 0.00 52 1017.9
20260502231806 60 64 1.0 2.0 0.00 0.00 0.00 52 1017.9
20260502231304 60 60 1.0 1.0 0.00 0.00 0.00 52 1017.9
20260502230802 60 59 1.0 1.0 0.00 0.00 0.00 51 1017.8
20260502230300 61 52 1.0 2.0 0.00 0.00 0.00 50 1017.7
20260502225756 61 7 2.0 3.0 0.00 0.00 0.00 50 1017.9
20260502225253 61 94 1.0 2.0 0.00 0.00 0.00 49 1017.8
20260502224749 61 39 1.0 2.0 0.00 0.00 0.00 48 1017.7
20260502224246 61 63 0.0 1.0 0.00 0.00 0.00 49 1017.9
20260502223744 62 49 0.0 0.0 0.00 0.00 0.00 49 1017.6
20260502223242 62 59 1.0 1.0 0.00 0.00 0.00 51 1017.8
20260502222739 62 54 1.0 2.0 0.00 0.00 0.00 51 1017.7
20260502222236 62 43 1.0 1.0 0.00 0.00 0.00 50 1017.5
20260502221731 62 50 1.0 2.0 0.00 0.00 0.00 52 1017.6
20260502221228 62 40 2.0 3.0 0.00 0.00 0.00 50 1017.4
20260502220725 62 51 2.0 4.0 0.00 0.00 0.00 50 1017.6
20260502220221 63 187 2.0 2.0 0.00 0.00 0.00 51 1017.4
20260502215718 63 54 1.0 2.0 0.00 0.00 0.00 49 1017.3
20260502215215 63 52 1.0 1.0 0.00 0.00 0.00 48 1017.2
20260502214712 64 54 2.0 2.0 0.00 0.00 0.00 48 1017.0
20260502214209 65 46 1.0 1.0 0.00 0.00 0.00 47 1016.9